Regional Weather Roundup
Issued by NWS

Home | Current Version | Previous Version | Text Only | Print | Product List | Glossary On
Versions: 1 2 3 4 5 6 7 8 9 10 11 12 13 14 15 16 17 18 19 20 21 22 23 24 25 26 27 28 29 30 31 32 33 34 35 36 37 38 39 40 41 42 43 44 45 46 47 48 49 50
000
ASCA44 KEWX 220320
RWRMX

LATIN AMERICA AND CARIBBEAN REGIONAL WEATHER ROUNDUP
NATIONAL WEATHER SERVICE AUSTIN/SAN ANTONIO TX
900 PM CST TUE NOV 21 2017

NOTE: "FAIR" INDICATED FEW OR NO CLOUDS BELOW 12,000 FEET WITH NO
SIGNIFICANT WEATHER AND/OR OBSTRUCTIONS TO VISIBILITY.

BAJA CALIFORNIA

CITY           SKY/WX    TMP DP  RH WIND       PRES   REMARKS
LA PAZ         PTCLDY    72  59  64 CALM      29.94R
MEXICALI       PTCLDY    70  30  23 NW5       30.05R
S.J. DEL CABO  CLEAR     72  63  73 W5        29.93S
TIJUANA        PTCLDY    70  45  40 CALM      30.04S

NORTHWESTERN MEXICO

CITY           SKY/WX    TMP DP  RH WIND       PRES   REMARKS
CULIACAN       MOCLDY    72  63  73 CALM      29.90R
DURANGO        CLEAR     55  25  30 N7        30.22R
GUAYMAS          N/A    N/A N/A N/A MISG        N/A
HERMOSILLO     PTCLDY    72  41  33 W5        29.95R
CD. JUAREZ     PTCLDY    63  18  17 E15       30.28R
LOS MOCHIS     PTCLDY    72  61  68 NW7       29.93R

NORTHEASTERN MEXICO

CITY           SKY/WX    TMP DP  RH WIND       PRES   REMARKS
CHIHUAHUA      PTCLDY    57  19  23 N8        30.24R
MONCLOVA         N/A    N/A N/A N/A MISG        N/A
SALTILLO       CLEAR     59  41  51 CALM      30.18R
CD. VICTORIA   CLEAR     68  59  73 MISG      29.91R

WESTERN MEXICO

CITY           SKY/WX    TMP DP  RH WIND       PRES   REMARKS
AGUASCALIENTES CLEAR     57  30  35 S8        30.19R
COLIMA         CLEAR     70  70 100 CALM      30.06R
DEL BAJIO      PTCLDY    61  37  41 NW6       30.22R
GUADALAJARA    CLEAR     61  36  39 W5        30.14R
MAZATLAN       PTCLDY    72  64  78 CALM      29.90R
P. VALLARTA    CLEAR     77  73  88 CALM      29.89
URUAPAN          N/A    N/A N/A N/A MISG        N/A
ZACATECAS      CLEAR     61  39  44 CALM      30.26R

CENTRAL MEXICO

CITY           SKY/WX    TMP DP  RH WIND       PRES   REMARKS
CUERNAVACA       N/A    N/A N/A N/A MISG        N/A
MEXICO CITY    MOCLDY    63  45  51 SE7       30.26R
MORELIA        PTCLDY    61  52  72 SW6         N/A
POZA RICA        N/A    N/A N/A N/A MISG        N/A
QUERETARO      CLEAR     57  37  47 E5        30.22R
S. LUIS POTOSI CLEAR     57  12  17 CALM      30.15R
TAMPICO        CLEAR     72  66  83 NE12      29.86R
TOLUCA         PTCLDY    50  43  76 NW7       30.33R WCI  47

SOUTHERN MEXICO

CITY           SKY/WX    TMP DP  RH WIND       PRES   REMARKS
ACAPULCO       PTCLDY    82  70  65 W6        29.88R
B. DE HUATULCO   N/A    N/A N/A N/A MISG        N/A
P. ESCONDIDO     N/A    N/A N/A N/A MISG        N/A
VERACRUZ       CLEAR     73  68  83 SE3       29.87R
ZIHUATANEJO    CLEAR     81  72  74 N3        29.89R

YUCATAN PENINSULA

CITY           SKY/WX    TMP DP  RH WIND       PRES   REMARKS
CAMPECHE       CLEAR     73  70  88 CALM      29.86R
CANCUN         CLEAR     68  68 100 NE2       29.91S
CHETUMAL       PTCLDY    75  72  88 CALM      29.91R
CD. DEL CARMEN CLEAR    N/A N/A N/A NE7       29.88S
COZUMEL        CLEAR     68  66  94 CALM      29.90R
MERIDA         PTCLDY    75  66  73 CALM      29.91R
MINATITLAN       N/A    N/A N/A N/A MISG        N/A
TAPACHULA      PTCLDY    73  72  94 NE2       29.89S
TUX. GUTIERREZ CLEAR     70  63  78 W5        29.93R
VILLAHERMOSA   CLEAR     70  70 100 CALM      29.89R

CENTRAL AMERICA

CITY           SKY/WX    TMP DP  RH WIND       PRES   REMARKS
MANAGUA        PTCLDY    77  72  83 SE5       29.83S

CARIBBEAN

CITY           SKY/WX    TMP DP  RH WIND       PRES   REMARKS
ARUBA          PTCLDY    82  77  83 E15       29.83S HX  91
CURACAO        PTCLDY    82  75  78 E14       29.86S
KINGSTON       MOCLDY    81  75  83 NW5       29.86S
NASSAU         PTCLDY    75  73  94 CALM      29.96R
SAN JUAN       CLEAR     77  72  83 CALM      29.95R
SANTO DOMINGO  PTCLDY    75  72  88 NE5       29.92S
ST. THOMAS       N/A     77  73  88 E6        29.96S

$$




USA.gov is the U.S. government's official web portal to all federal, state and local government web resources and services.